Regional Weather Roundup
Issued by NWS Newport/Morehead, NC

Current Version | Previous Version | Text Only | Print | Product List | Glossary On
Versions: 1 2 3 4 5 6 7 8 9 10 11 12 13 14 15 16 17 18 19 20 21 22 23 24 25 26 27 28 29 30 31 32 33 34 35 36 37 38 39 40 41 42 43 44 45 46 47 48
000
ASUS42 KMHX 201922
RWRMHX
WEATHER ROUNDUP FOR EASTERN NORTH CAROLINA
NATIONAL WEATHER SERVICE NEWPORT/MOREHEAD CITY NC
300 PM EDT SUN APR 20 2014

NOTE: "FAIR" INDICATES FEW OR NO CLOUDS BELOW 12,000 FEET
WITH NO SIGNIFICANT WEATHER AND/OR OBSTRUCTIONS TO VISIBILITY

NCZ015>017-031-032-045>047-102-103-202000-
NORTH COAST

CITY           SKY/WX    TMP DP  RH WIND       PRES   REMARKS
EDENTON        LGT RAIN  52  51  98 NE21G32   30.22S
ELIZABETH CITY LGT RAIN  52  46  82 NE29G39   30.23S FOG
KITTY HAWK     LGT RAIN  49  48  97 N14G28    30.17R
MANTEO         RAIN      49  49  97 NE25G38   30.11F

$$

NCZ045>047-081-094-103-104-202000-
CENTRAL COAST

CITY           SKY/WX    TMP DP  RH WIND       PRES   REMARKS
FRISCO         LGT RAIN  56  56 100 NE15G25   30.07S FOG
SWANQUARTER      N/A     54 N/A N/A NE10G38   30.09S

$$

NCZ095-097-098-100-101-202000-
SOUTHERN COAST

CITY           SKY/WX    TMP DP  RH WIND       PRES   REMARKS
BEAUFORT       LGT RAIN  56  54  93 N22G37    30.06S FOG
CEDAR ISLAND     N/A     55 N/A N/A N17G40    30.12S
JACKSONVILLE   LGT RAIN  57  57 100 N26G35    30.09S
NEWPORT          N/A     55  54  94 N13G21      N/A
PINEY ISLAND   LGT RAIN  57  32  38 N23G40    30.07S
WILMINGTON     CLOUDY    58  55  90 N17G30    30.08R


$$

NCZ011>013-027>030-043-044-078>080-089-090>093-098-202000-
COASTAL PLAIN

CITY           SKY/WX    TMP DP  RH WIND       PRES   REMARKS
AHOSKIE        CLOUDY    58  38  48 NE20G29   30.26S
CLINTON        LGT RAIN  61  53  75 N14G24    30.16S
ELIZABETHTOWN  CLOUDY    60  50  69 N6        30.13F
GOLDSBORO      CLOUDY    60  53  77 NE10G26   30.17R
GREENVILLE     DRIZZLE   55  52  88 NE20G30   30.21S
HAVELOCK       LGT RAIN  55  52  89 N22G36    30.10S FOG
KENANSVILLE    CLOUDY    58  52  80 N15G26    30.16S
KINSTON        PTSUNNY   59  54  82 MISG      30.18S
NEW BERN       CLOUDY    57  54  88 N24G30    30.13S FOG
RICHLANDS      CLOUDY    55  55 100 N15G30    30.12S
ROANOKE RAPIDS NOT AVBL
ROCKY MOUNT    CLOUDY    62  48  60 NE18G28   30.23S
WASHINGTON     CLOUDY    54  50  85 NE17G28   30.19S
WHITEVILLE     CLOUDY    60  51  72 N9G16     30.11S

$$

AMZ130-135-150-152-154-156-158-170-250-252-270-ANZ085-086-088-633-658-670-202000-
MARINE OBSERVATIONS

STATION/POSITION TIME  TEMP    WIND        PRES    WAVE   SWELL
                       AIR SEA DIR/SP/G            HT/PER HT/PER
                 (UTC) (F)     (DEG/KT/KT) (MB)    (FT/S) (FT/S)
CHESAPEAKE LIGHT 1900   48      30/ 31/ 35 1024.8
BUOY 44014       1900   53 49   40/ 23/ 27 1022.1   13/11  10/11
DUCK             1900   48 49   20/ 34/ 40 1021.2
2E DUCK          1900      47                N/A    12/11   7/11
OREGON INLET     1900   50 51  360/ 16/ 23 1020.4
BUOY 44095       1900      48                N/A    15/11  10/11
HATTERAS CG      1900   56 56   20/ 11/ 19 1018.2
DIAMOND BUOY     1900   68 76   70/ 31/ 39 1014.7   17/12  11/12
CAPE LOOKOUT     1900   56      10/ 27/ 35 1016.6
BEAUFORT LAB     1900   56 57   10/ 25/ 32 1017.1
30 SE NEW RIVER  1900   60 65   20/ 31/ 39 1015.3   11/11   5/11
5 SE WRIGHTSVILL 1800   58 59   10/ 23/ 29 1016.8
FRYING PAN BUOY  1900   61 68   30/ 35/ 41 1013.7   11/ 8   5/11
BUOY 41001       NOT AVBL
BUOY 41002       NOT AVBL
BUOY 41004       NOT AVBL

$$



USA.gov is the U.S. government's official web portal to all federal, state and local government web resources and services.